User: anonymous   Login
Location: Piotrkow Trybunalski
(51.4000°N, 19.6830°E)
Time: 08:47:58
(UTC+02:00)
Language:

Transit 4A - Orbit

View from above orbital plane
View from above orbital plane
View from above satellite
View from above satellite

Ground track
Ground track

The orbit data is extracted from the following two-line orbital elements,

1 00116U 61015A   24202.93788493  .00000264  00000-0  26129-3 0  9997
2 00116  66.8092 154.2168 0070852  37.0097 323.5839 13.92063517199780
Epoch (UTC): 20 July 2024 22:30:33
Eccentricity: 0.0070852
inclination: 66.8092°
perigee height: 869 km
apogee height: 973 km
right ascension of ascending node: 154.2168°
argument of perigee: 37.0097°
revolutions per day: 13.92063517
mean anomaly at epoch: 323.5839°
orbit number at epoch: 19978

The dashed part of the orbit path shows where the satellite is in the earth's shadow,  

DLR